Time,TemperatureF,DewpointF,PressureIn,WindDirection,WindDirectionDegrees,WindSpeedMPH,WindSpeedGustMPH,Humidity,HourlyPrecipIn,Conditions,Clouds,dailyrainin,SolarRadiationWatts/m^2,SoftwareType,DateUTC
2013-10-09 00:03:00,57.9,55.6,30.04,West,276,0.0,0.0,92,0.00,,,0.00,0.0,meteohub,2013-10-09 05:03:00,
2013-10-09 00:08:00,57.9,55.6,30.04,West,276,0.0,0.0,92,0.00,,,0.00,0.0,meteohub,2013-10-09 05:08:00,
2013-10-09 00:13:00,57.9,55.6,30.04,West,276,0.0,0.0,92,0.00,,,0.00,0.0,meteohub,2013-10-09 05:13:00,
2013-10-09 00:18:00,57.9,55.6,30.04,West,276,0.0,0.0,92,0.00,,,0.00,0.0,meteohub,2013-10-09 05:18:00,
2013-10-09 00:23:00,57.7,55.4,30.04,West,276,0.0,0.0,92,0.00,,,0.00,0.0,meteohub,2013-10-09 05:23:00,
2013-10-09 00:28:00,57.7,55.4,30.04,West,276,0.0,0.0,92,0.00,,,0.00,0.0,meteohub,2013-10-09 05:28:00,
2013-10-09 00:33:00,57.6,55.2,30.04,West,276,0.0,0.0,92,0.00,,,0.00,0.0,meteohub,2013-10-09 05:33:00,
2013-10-09 00:38:00,57.6,55.2,30.04,West,276,0.0,0.0,92,0.00,,,0.00,0.0,meteohub,2013-10-09 05:38:00,
2013-10-09 00:43:00,57.6,55.2,30.04,West,276,0.0,0.0,92,0.00,,,0.00,0.0,meteohub,2013-10-09 05:43:00,
2013-10-09 00:48:00,57.4,55.0,30.04,West,276,0.0,0.0,92,0.00,,,0.00,0.0,meteohub,2013-10-09 05:48:00,
2013-10-09 00:53:00,57.4,55.0,30.04,West,276,0.0,0.0,92,0.00,,,0.00,0.0,meteohub,2013-10-09 05:53:00,
2013-10-09 00:58:00,57.2,54.9,30.04,West,276,0.0,0.0,92,0.00,,,0.00,0.0,meteohub,2013-10-09 05:58:00,
2013-10-09 01:03:00,57.0,54.7,30.04,West,276,0.0,0.0,92,0.00,,,0.00,0.0,meteohub,2013-10-09 06:03:00,
2013-10-09 01:08:00,56.8,54.5,30.03,West,276,0.0,0.0,92,0.00,,,0.00,0.0,meteohub,2013-10-09 06:08:00,
2013-10-09 01:13:00,56.8,54.5,30.03,West,276,0.0,0.0,92,0.00,,,0.00,0.0,meteohub,2013-10-09 06:13:00,
2013-10-09 01:18:00,56.8,54.5,30.03,West,276,0.0,0.0,92,0.00,,,0.00,0.0,meteohub,2013-10-09 06:18:00,
2013-10-09 01:23:00,56.7,54.3,30.03,West,276,0.0,0.0,92,0.00,,,0.00,0.0,meteohub,2013-10-09 06:23:00,
2013-10-09 01:28:00,56.7,54.3,30.03,West,276,0.0,0.0,92,0.00,,,0.00,0.0,meteohub,2013-10-09 06:28:00,
2013-10-09 01:33:00,56.5,54.1,30.03,West,276,0.0,0.0,92,0.00,,,0.00,0.0,meteohub,2013-10-09 06:33:00,
2013-10-09 01:38:00,56.5,54.1,30.03,West,276,0.0,0.0,92,0.00,,,0.00,0.0,meteohub,2013-10-09 06:38:00,
2013-10-09 01:43:00,56.3,54.0,30.03,West,276,0.0,0.0,92,0.00,,,0.00,0.0,meteohub,2013-10-09 06:43:00,
2013-10-09 01:48:00,56.1,53.8,30.03,West,276,0.0,0.0,92,0.00,,,0.00,0.0,meteohub,2013-10-09 06:48:00,
2013-10-09 01:54:00,56.1,53.8,30.03,West,276,0.0,0.0,92,0.00,,,0.00,0.0,meteohub,2013-10-09 06:54:00,
2013-10-09 01:59:00,56.3,54.0,30.03,West,276,0.0,0.0,92,0.00,,,0.00,0.0,meteohub,2013-10-09 06:59:00,
2013-10-09 02:04:00,56.3,54.3,30.04,West,276,0.0,0.0,93,0.00,,,0.00,0.0,meteohub,2013-10-09 07:04:00,
2013-10-09 02:09:00,56.3,54.0,30.03,West,276,0.0,0.0,92,0.00,,,0.00,0.0,meteohub,2013-10-09 07:09:00,
2013-10-09 02:14:00,56.1,53.8,30.03,West,276,0.0,0.0,92,0.00,,,0.00,0.0,meteohub,2013-10-09 07:14:00,
2013-10-09 02:19:00,55.9,53.6,30.03,West,276,0.0,0.0,92,0.00,,,0.00,0.0,meteohub,2013-10-09 07:19:00,
2013-10-09 02:24:00,55.9,53.6,30.03,West,276,0.0,0.0,92,0.00,,,0.00,0.0,meteohub,2013-10-09 07:24:00,
2013-10-09 02:29:00,55.8,53.4,30.03,West,276,0.0,0.0,92,0.00,,,0.00,0.0,meteohub,2013-10-09 07:29:00,
2013-10-09 02:34:00,55.6,53.2,30.03,West,276,0.0,0.0,92,0.00,,,0.00,0.0,meteohub,2013-10-09 07:34:00,
2013-10-09 02:39:00,55.6,53.2,30.03,West,276,0.0,0.0,92,0.00,,,0.00,0.0,meteohub,2013-10-09 07:39:00,
2013-10-09 02:44:00,55.2,52.9,30.03,West,276,0.0,0.0,92,0.00,,,0.00,0.0,meteohub,2013-10-09 07:44:00,
2013-10-09 02:49:00,55.2,52.9,30.02,West,276,0.0,0.0,92,0.00,,,0.00,0.0,meteohub,2013-10-09 07:49:00,
2013-10-09 02:54:00,55.0,52.7,30.02,West,276,0.0,0.0,92,0.00,,,0.00,0.0,meteohub,2013-10-09 07:54:00,
2013-10-09 02:59:00,54.9,52.5,30.02,West,276,0.0,0.0,92,0.00,,,0.00,0.0,meteohub,2013-10-09 07:59:00,
2013-10-09 03:04:00,54.9,52.5,30.02,West,276,0.0,0.0,92,0.00,,,0.00,0.0,meteohub,2013-10-09 08:04:00,
2013-10-09 03:09:00,54.7,52.3,30.02,West,276,0.0,0.0,92,0.00,,,0.00,0.0,meteohub,2013-10-09 08:09:00,
2013-10-09 03:14:00,54.7,52.3,30.02,West,276,0.0,0.0,92,0.00,,,0.00,0.0,meteohub,2013-10-09 08:14:00,
2013-10-09 03:19:00,54.5,52.2,30.02,West,276,0.0,0.0,92,0.00,,,0.00,0.0,meteohub,2013-10-09 08:19:00,
2013-10-09 03:24:00,54.3,52.0,30.02,West,276,0.0,0.0,92,0.00,,,0.00,0.0,meteohub,2013-10-09 08:24:00,
2013-10-09 03:29:00,54.3,52.3,30.02,West,276,0.0,0.0,93,0.00,,,0.00,0.0,meteohub,2013-10-09 08:29:00,
2013-10-09 03:34:00,54.1,51.8,30.03,West,276,0.0,0.0,92,0.00,,,0.00,0.0,meteohub,2013-10-09 08:34:00,
2013-10-09 03:39:00,54.1,51.8,30.03,West,276,0.0,0.0,92,0.00,,,0.00,0.0,meteohub,2013-10-09 08:39:00,
2013-10-09 03:44:00,54.1,51.8,30.03,West,276,0.0,0.0,92,0.00,,,0.00,0.0,meteohub,2013-10-09 08:44:00,
2013-10-09 03:49:00,54.0,52.0,30.03,West,276,0.0,0.0,93,0.00,,,0.00,0.0,meteohub,2013-10-09 08:49:00,
2013-10-09 03:54:00,54.0,52.0,30.03,West,276,0.0,0.0,93,0.00,,,0.00,0.0,meteohub,2013-10-09 08:54:00,
2013-10-09 03:59:00,54.0,52.0,30.03,West,276,0.0,0.0,93,0.00,,,0.00,0.0,meteohub,2013-10-09 08:59:00,
2013-10-09 04:04:00,54.0,52.0,30.03,West,276,0.0,0.0,93,0.00,,,0.00,0.0,meteohub,2013-10-09 09:04:00,
2013-10-09 04:09:00,54.0,52.0,30.03,West,276,0.0,0.0,93,0.00,,,0.00,0.0,meteohub,2013-10-09 09:09:00,
2013-10-09 04:14:00,54.0,52.0,30.03,West,276,0.0,0.0,93,0.00,,,0.00,0.0,meteohub,2013-10-09 09:14:00,
2013-10-09 04:19:00,53.8,51.8,30.02,West,276,0.0,0.0,93,0.00,,,0.00,0.0,meteohub,2013-10-09 09:19:00,
2013-10-09 04:24:00,53.8,51.8,30.03,West,276,0.0,0.0,93,0.00,,,0.00,0.0,meteohub,2013-10-09 09:24:00,
2013-10-09 04:29:00,53.6,51.6,30.03,West,276,0.0,0.0,93,0.00,,,0.00,0.0,meteohub,2013-10-09 09:29:00,
2013-10-09 04:34:00,53.4,51.4,30.03,West,276,0.0,0.0,93,0.00,,,0.00,0.0,meteohub,2013-10-09 09:34:00,
2013-10-09 04:39:00,53.4,51.4,30.03,West,276,0.0,0.0,93,0.00,,,0.00,0.0,meteohub,2013-10-09 09:39:00,
2013-10-09 04:44:00,53.2,51.3,30.03,West,276,0.0,0.0,93,0.00,,,0.00,0.0,meteohub,2013-10-09 09:44:00,
2013-10-09 04:49:00,53.2,51.3,30.03,West,276,0.0,0.0,93,0.00,,,0.00,0.0,meteohub,2013-10-09 09:49:00,
2013-10-09 04:54:00,53.2,51.3,30.03,West,276,0.0,0.0,93,0.00,,,0.00,0.0,meteohub,2013-10-09 09:54:00,
2013-10-09 04:59:00,53.1,51.1,30.03,West,276,0.0,0.0,93,0.00,,,0.00,0.0,meteohub,2013-10-09 09:59:00,
2013-10-09 05:04:00,53.1,51.1,30.03,West,276,0.0,0.0,93,0.00,,,0.00,0.0,meteohub,2013-10-09 10:04:00,
2013-10-09 05:09:00,52.9,50.9,30.03,West,276,0.0,0.0,93,0.00,,,0.00,0.0,meteohub,2013-10-09 10:09:00,
2013-10-09 05:14:00,52.9,50.9,30.03,West,276,0.0,0.0,93,0.00,,,0.00,0.0,meteohub,2013-10-09 10:14:00,
2013-10-09 05:20:00,52.7,50.7,30.03,West,276,0.0,0.0,93,0.00,,,0.00,0.0,meteohub,2013-10-09 10:20:00,
2013-10-09 05:25:00,52.5,50.5,30.04,West,276,0.0,0.0,93,0.00,,,0.00,0.0,meteohub,2013-10-09 10:25:00,
2013-10-09 05:30:00,52.5,50.5,30.04,West,276,0.0,0.0,93,0.00,,,0.00,0.0,meteohub,2013-10-09 10:30:00,
2013-10-09 05:35:00,52.3,50.4,30.04,West,276,0.0,0.0,93,0.00,,,0.00,0.0,meteohub,2013-10-09 10:35:00,
2013-10-09 05:40:00,52.3,50.4,30.04,West,276,0.0,0.0,93,0.00,,,0.00,0.0,meteohub,2013-10-09 10:40:00,
2013-10-09 05:45:00,52.2,50.2,30.04,West,276,0.0,0.0,93,0.00,,,0.00,0.0,meteohub,2013-10-09 10:45:00,
2013-10-09 05:50:00,52.2,50.2,30.04,West,276,0.0,0.0,93,0.00,,,0.00,0.0,meteohub,2013-10-09 10:50:00,
2013-10-09 05:55:00,52.2,50.2,30.04,West,276,0.0,0.0,93,0.00,,,0.00,0.0,meteohub,2013-10-09 10:55:00,
2013-10-09 06:00:00,52.2,50.2,30.04,West,276,0.0,0.0,93,0.00,,,0.00,0.0,meteohub,2013-10-09 11:00:00,
2013-10-09 06:05:00,52.2,50.2,30.04,West,276,0.0,0.0,93,0.00,,,0.00,0.0,meteohub,2013-10-09 11:05:00,
2013-10-09 06:10:00,52.0,50.0,30.04,West,276,0.0,0.0,93,0.00,,,0.00,0.0,meteohub,2013-10-09 11:10:00,
2013-10-09 06:15:00,52.0,50.0,30.04,West,276,0.0,0.0,93,0.00,,,0.00,0.0,meteohub,2013-10-09 11:15:00,
2013-10-09 06:20:00,52.0,50.0,30.04,West,276,0.0,0.0,93,0.00,,,0.00,0.0,meteohub,2013-10-09 11:20:00,
2013-10-09 06:25:00,52.0,50.0,30.04,West,276,0.0,0.0,93,0.00,,,0.00,0.0,meteohub,2013-10-09 11:25:00,
2013-10-09 06:30:00,52.0,50.0,30.04,West,276,0.0,0.0,93,0.00,,,0.00,0.0,meteohub,2013-10-09 11:30:00,
2013-10-09 06:35:00,51.8,49.8,30.04,West,276,0.0,0.0,93,0.00,,,0.00,0.0,meteohub,2013-10-09 11:35:00,
2013-10-09 06:40:00,51.8,49.8,30.04,West,276,0.0,0.0,93,0.00,,,0.00,0.0,meteohub,2013-10-09 11:40:00,
2013-10-09 06:45:00,51.8,49.8,30.04,West,276,0.0,0.0,93,0.00,,,0.00,0.0,meteohub,2013-10-09 11:45:00,
2013-10-09 06:50:00,51.8,49.8,30.05,West,276,0.0,0.0,93,0.00,,,0.00,0.0,meteohub,2013-10-09 11:50:00,
2013-10-09 06:55:00,51.6,49.6,30.05,West,276,0.0,0.0,93,0.00,,,0.00,0.0,meteohub,2013-10-09 11:55:00,
2013-10-09 07:00:00,51.6,49.6,30.05,West,276,0.0,0.0,93,0.00,,,0.00,0.0,meteohub,2013-10-09 12:00:00,
2013-10-09 07:03:00,51.6,49.6,30.05,West,276,0.0,0.0,93,0.00,,,0.00,0.0,meteohub,2013-10-09 12:03:00,